TimeEDT,TemperatureF,Dew PointF,Humidity,Sea Level PressureIn,VisibilityMPH,Wind Direction,Wind SpeedMPH,Gust SpeedMPH,PrecipitationIn,Events,Conditions,WindDirDegrees,DateUTC
12:53 AM,75.0,72.0,90,29.99,10.0,Calm,Calm,-,N/A,,Partly Cloudy,0,2013-09-19 04:53:00
1:53 AM,75.0,72.0,90,29.97,10.0,North,3.5,-,N/A,,Partly Cloudy,360,2013-09-19 05:53:00
2:53 AM,75.0,72.0,90,29.95,10.0,NNW,3.5,-,N/A,,Partly Cloudy,340,2013-09-19 06:53:00
3:53 AM,75.0,73.0,94,29.94,10.0,North,4.6,-,N/A,,Partly Cloudy,360,2013-09-19 07:53:00
4:53 AM,73.9,73.0,97,29.93,10.0,North,4.6,-,N/A,,Partly Cloudy,350,2013-09-19 08:53:00
5:53 AM,75.0,73.0,94,29.94,10.0,North,4.6,-,N/A,,Mostly Cloudy,10,2013-09-19 09:53:00
6:53 AM,75.0,73.0,94,29.95,10.0,NNW,4.6,-,N/A,,Partly Cloudy,340,2013-09-19 10:53:00
7:53 AM,77.0,73.9,90,29.96,10.0,NW,3.5,-,N/A,,Scattered Clouds,310,2013-09-19 11:53:00
8:53 AM,79.0,75.0,88,29.98,10.0,Calm,Calm,-,N/A,,Partly Cloudy,0,2013-09-19 12:53:00
9:53 AM,82.9,75.0,77,29.99,10.0,NE,8.1,-,N/A,,Mostly Cloudy,40,2013-09-19 13:53:00
10:53 AM,84.0,73.9,72,30.00,10.0,ENE,10.4,-,N/A,,Mostly Cloudy,60,2013-09-19 14:53:00
11:53 AM,87.1,73.0,63,30.00,10.0,East,11.5,-,N/A,,Scattered Clouds,80,2013-09-19 15:53:00
12:53 PM,86.0,73.9,67,29.99,10.0,ENE,10.4,-,N/A,,Scattered Clouds,70,2013-09-19 16:53:00
1:53 PM,87.1,73.9,65,29.97,10.0,ENE,10.4,-,N/A,,Scattered Clouds,60,2013-09-19 17:53:00
2:53 PM,87.1,75.0,67,29.95,10.0,ENE,11.5,-,N/A,,Scattered Clouds,60,2013-09-19 18:53:00
3:53 PM,86.0,75.0,70,29.95,10.0,ENE,13.8,-,N/A,,Scattered Clouds,60,2013-09-19 19:53:00
4:53 PM,82.9,73.0,72,29.95,10.0,ENE,10.4,-,N/A,,Scattered Clouds,60,2013-09-19 20:53:00
5:53 PM,82.9,75.0,77,29.96,10.0,ENE,12.7,-,N/A,,Mostly Cloudy,60,2013-09-19 21:53:00
6:53 PM,82.9,73.0,72,29.96,10.0,East,13.8,19.6,N/A,,Scattered Clouds,80,2013-09-19 22:53:00
7:53 PM,81.0,73.0,77,29.97,10.0,East,10.4,-,N/A,,Scattered Clouds,80,2013-09-19 23:53:00
8:53 PM,81.0,73.9,79,29.99,10.0,East,13.8,-,N/A,,Mostly Cloudy,80,2013-09-20 00:53:00
9:53 PM,75.9,73.9,94,30.00,8.0,Variable,6.9,-,0.03,Rain,Light Rain,0,2013-09-20 01:53:00
10:53 PM,80.1,73.0,79,30.00,10.0,ENE,6.9,-,0.01,,Overcast,60,2013-09-20 02:53:00
11:53 PM,80.1,71.1,74,29.99,10.0,ENE,6.9,-,N/A,,Mostly Cloudy,60,2013-09-20 03:53:00